This is the latest recevied weather packets stored in our database for station/object dl9mfl-6. If no packets are shown the sender has not sent any weather packets the latest 1 day(s).
| Time | Temp. | Humidity | Pressure | Rain* | Wind** | Luminosity | Snow |
|---|---|---|---|---|---|---|---|
| 1777996441 | 16.67° C | 67% | 1004.9 hPa | 0 mm | 1.79 m/s, 324° | - | - |
| 1777996381 | 16.67° C | 67% | 1004.9 hPa | 0 mm | 1.34 m/s, 306° | - | - |
| 1777996321 | 16.67° C | 67% | 1004.9 hPa | 0 mm | 1.34 m/s, 342° | - | - |
| 1777996261 | 16.67° C | 67% | 1004.9 hPa | 0 mm | 1.34 m/s, 293° | - | - |
| 1777996201 | 16.67° C | 67% | 1004.9 hPa | 0 mm | 1.34 m/s, 5° | - | - |
| 1777996141 | 16.67° C | 67% | 1004.9 hPa | 0 mm | 1.34 m/s, 300° | - | - |
| 1777996081 | 16.67° C | 67% | 1004.9 hPa | 0 mm | 1.79 m/s, 302° | - | - |
| 1777996051 | 16.67° C | 67% | 1004.9 hPa | 0 mm | 1.79 m/s, 298° | - | - |
| 1777995961 | 17.22° C | 66% | 1004.9 hPa | 0 mm | 1.79 m/s, 287° | - | - |
| 1777995901 | 17.22° C | 67% | 1004.9 hPa | 0 mm | 1.79 m/s, 286° | - | - |
| 1777995841 | 17.22° C | 67% | 1004.9 hPa | 0 mm | 2.24 m/s, 315° | - | - |
| 1777995781 | 17.22° C | 67% | 1004.9 hPa | 0 mm | 2.24 m/s, 308° | - | - |
| 1777995721 | 17.22° C | 67% | 1004.9 hPa | 0 mm | 2.24 m/s, 304° | - | - |
| 1777995661 | 17.22° C | 67% | 1004.9 hPa | 0 mm | 2.24 m/s, 317° | - | - |
| 1777995596 | 17.22° C | 67% | 1004.9 hPa | 0 mm | 2.24 m/s, 306° | - | - |
| 1777995537 | 17.22° C | 67% | 1004.9 hPa | 0 mm | 2.68 m/s, 284° | - | - |
| 1777995476 | 17.22° C | 67% | 1004.9 hPa | 0 mm | 2.68 m/s, 299° | - | - |
| 1777995416 | 17.22° C | 66% | 1004.9 hPa | 0 mm | 2.68 m/s, 279° | - | - |
| 1777995356 | 17.22° C | 66% | 1004.9 hPa | 0 mm | 2.68 m/s, 284° | - | - |
| 1777995290 | 17.22° C | 67% | 1004.9 hPa | 0 mm | 2.24 m/s, 309° | - | - |
| 1777995232 | 17.22° C | 66% | 1004.9 hPa | 0 mm | 2.24 m/s, 288° | - | - |
| 1777995170 | 17.22° C | 66% | 1004.7 hPa | 0 mm | 2.24 m/s, 291° | - | - |
| 1777995110 | 17.22° C | 66% | 1004.9 hPa | 0 mm | 2.68 m/s, 302° | - | - |
| 1777995050 | 17.22° C | 66% | 1004.9 hPa | 0 mm | 2.68 m/s, 294° | - | - |
| 1777994984 | 17.22° C | 65% | 1004.7 hPa | 0 mm | 2.68 m/s, 312° | - | - |
* Rain latest hour (hover to see other rain measurements)
** Current wind speed in m/s (hover to see current wind gust speed)